Location: Dvur Kralove nad Labem
(50.4330°N, 15.8170°E)
Time: 20:02:43
(UTC+02:00)

ISS - Visible Passes

Search period start: 21 May 2022 00:00
Search period end: 31 May 2022 00:00
Orbit: 414 x 421 km, 51.6° (Epoch: 21 May)

Date Brightness Start Highest point End Pass type
(mag) Time Alt. Az. Time Alt. Az. Time Alt. Az.
21 May -3.7 00:11:26 10° WNW 00:14:29 61° SW 00:14:29 61° SW visible
21 May -3.5 21:46:35 10° W 21:49:56 70° N 21:53:17 10° E visible
21 May -3.9 23:23:26 10° WNW 23:26:48 84° SSW 23:28:01 37° ESE visible
22 May -1.2 01:00:30 10° W 01:00:55 12° W 01:00:55 12° W visible
22 May -3.7 22:35:26 10° WNW 22:38:48 82° NNE 22:41:33 15° E visible
23 May -2.5 00:12:20 10° W 00:14:27 28° WSW 00:14:27 28° WSW visible
23 May -3.5 21:47:24 10° W 21:50:46 73° N 21:54:06 10° E visible
23 May -3.5 23:24:14 10° WNW 23:27:29 48° SSW 23:27:59 44° S visible
24 May -3.8 22:36:10 10° WNW 22:39:30 66° SSW 22:41:31 22° ESE visible
25 May -1.4 00:13:33 10° W 00:14:25 14° WSW 00:14:25 14° WSW visible
25 May -3.8 21:48:05 10° WNW 21:51:28 85° SSW 21:54:49 10° ESE visible
25 May -2.4 23:25:08 10° W 23:27:56 25° SW 23:27:57 25° SW visible
26 May -2.9 22:36:53 10° W 22:40:00 35° SSW 22:41:31 23° SSE visible
27 May -3.4 21:48:42 10° WNW 21:51:59 50° SSW 21:55:05 11° SE visible
27 May -1.4 23:26:48 10° WSW 23:27:59 12° SW 23:27:59 12° SW visible
28 May -1.8 22:37:53 10° W 22:40:14 18° SW 22:41:34 15° S visible
29 May -2.3 21:49:25 10° W 21:52:15 26° SW 21:55:05 10° SSE visible
